This is the latest recevied weather packets stored in our database for station/object WC4PEM-11. If no packets are shown the sender has not sent any weather packets the latest 10 day(s).
| Time | Temp. | Humidity | Pressure | Rain* | Wind** | Luminosity | Snow |
|---|---|---|---|---|---|---|---|
| 1777830489 | 22.22° C | 78% | 1017.8 hPa | 0 mm | - | - | - |
| 1777830189 | 22.22° C | 78% | 1017.8 hPa | 0 mm | - | - | - |
| 1777829889 | 22.22° C | 80% | 1017.8 hPa | 0 mm | - | - | - |
| 1777829589 | 21.67° C | 80% | 1017.8 hPa | 0 mm | - | - | - |
| 1777829289 | 21.67° C | 80% | 1018.1 hPa | 0 mm | - | - | - |
| 1777828989 | 21.67° C | 80% | 1018.1 hPa | 0 mm | - | - | - |
| 1777828689 | 21.11° C | 80% | 1018.1 hPa | 0 mm | - | - | - |
| 1777828389 | 21.11° C | 81% | 1018.1 hPa | 0 mm | - | - | - |
| 1777828275 | 21.11° C | 80% | 1018.1 hPa | 0 mm | - | - | - |
| 1777828089 | 21.11° C | 82% | 1018.1 hPa | 0 mm | - | - | - |
| 1777827789 | 21.11° C | 80% | 1018.1 hPa | 0 mm | - | - | - |
| 1777827489 | 21.11° C | 81% | 1018.2 hPa | 0 mm | - | - | - |
| 1777827393 | 21.11° C | 80% | 1018.2 hPa | 0 mm | - | - | - |
| 1777827189 | 21.11° C | 80% | 1018.2 hPa | 0 mm | - | - | - |
| 1777826889 | 21.11° C | 81% | 1018.2 hPa | 0 mm | - | - | - |
| 1777826589 | 21.11° C | 82% | 1018.1 hPa | 0 mm | - | - | - |
| 1777826289 | 21.11° C | 81% | 1018.2 hPa | 0 mm | - | - | - |
| 1777826283 | 20.56° C | 81% | 1018.2 hPa | 0 mm | - | - | - |
| 1777825989 | 20.56° C | 81% | 1018.2 hPa | 0 mm | - | - | - |
| 1777825689 | 20.56° C | 83% | 1018.2 hPa | 0 mm | - | - | - |
| 1777825390 | 20.56° C | 83% | 1018.3 hPa | 0 mm | - | - | - |
| 1777825089 | 20.56° C | 82% | 1018.2 hPa | 0 mm | - | - | - |
| 1777824789 | 20° C | 82% | 1018.4 hPa | 0 mm | - | - | - |
| 1777824489 | 20° C | 82% | 1018.3 hPa | 0 mm | - | - | - |
| 1777824355 | 20.56° C | 82% | 1018.4 hPa | 0 mm | - | - | - |
* Rain latest hour (hover to see other rain measurements)
** Current wind speed in m/s (hover to see current wind gust speed)